Independence, KS

9:24 AM CST on December 15, 2017 (GMT -0600)
Independence Municipal

Weather History for KIDP - March, 2013

Change the Weather History Date:

Monday, March 25, 2013

  Actual Average (KCFV) Record (KCFV)
Temperature  
Mean Temperature 30 °F -  
Max Temperature 35 °F 60 °F 80 °F (2012)
Min Temperature 24 °F 38 °F 25 °F (2014)
Degree Days  
Heating Degree Days 36    
Moisture  
Dew Point 22 °F    
Average Humidity 72    
Maximum Humidity 80    
Minimum Humidity 64    
Precipitation  
Precipitation 0.00 in - - ()
Sea Level Pressure  
Sea Level Pressure 30.27 in    
Wind  
Wind Speed 12 mph (NW)    
Max Wind Speed 25 mph    
Max Gust Speed 32 mph    
Visibility 10 miles    
Events Snow    
Averages and records for this station are not official NWS values.
T = Trace of Precipitation, MM = Missing Value Source: NWS Daily Summary

Daily Weather History Graph

Daily Weather History Graph

Search for Another Location

Airport or City:

Trip Planner

Search our weather history database for the weather conditions in past years. The results will help you decide how hot, cold, wet, or windy it might be!

Date:

Astronomy

Mar. 25, 2013 Rise Set
Actual Time 7:18 AM CDT 7:39 PM CDT
Civil Twilight 6:52 AM CDT 8:05 PM CDT
Nautical Twilight 6:22 AM CDT 8:36 PM CDT
Astronomical Twilight 5:51 AM CDT 9:07 PM CDT
Moon 6:13 PM CDT (3/25) 6:00 AM CDT (3/25)
Length of Visible Light 13h 13m
Length of Day
12h 20m
Waxing Gibbous, 96% of the Moon is Illuminated
Mar 25
Waxing Gibbous
Mar 27
Full
Apr 2
Last Quarter
Apr 10
New
Apr 18
First Quarter

Hourly Weather History & Observations

Time (CDT) Temp. Windchill Dew Point Humidity Pressure Visibility Wind Dir Wind Speed Gust Speed Precip Events Conditions
12:15 AM 28.4 °F 23.3 °F 21.2 °F 74% 30.16 in 10.0 mi NW 4.6 mph - N/A   Clear
12:35 AM 26.6 °F 22.6 °F 21.2 °F 80% 30.16 in 10.0 mi West 3.5 mph - N/A   Clear
12:55 AM 26.6 °F 19.1 °F 21.2 °F 80% 30.17 in 10.0 mi West 6.9 mph - N/A   Clear
1:15 AM 26.6 °F 18.2 °F 21.2 °F 80% 30.17 in 10.0 mi West 8.1 mph - N/A   Clear
1:35 AM 26.6 °F 18.2 °F 21.2 °F 80% 30.17 in 10.0 mi West 8.1 mph - N/A   Scattered Clouds
1:55 AM 28.4 °F 19.7 °F 23.0 °F 80% 30.17 in 10.0 mi West 9.2 mph - N/A   Mostly Cloudy
2:15 AM 30.2 °F 21.3 °F 23.0 °F 75% 30.17 in 10.0 mi West 10.4 mph - N/A   Overcast
2:35 AM 30.2 °F 20.2 °F 21.2 °F 69% 30.17 in 10.0 mi WNW 12.7 mph - N/A   Mostly Cloudy
2:55 AM 28.4 °F 18.5 °F 21.2 °F 74% 30.17 in 10.0 mi WNW 11.5 mph - N/A   Scattered Clouds
3:15 AM 28.4 °F 18.5 °F 21.2 °F 74% 30.17 in 10.0 mi NW 11.5 mph - N/A   Clear
3:35 AM 28.4 °F 17.5 °F 21.2 °F 74% 30.17 in 10.0 mi NW 13.8 mph - N/A   Clear
3:55 AM 28.4 °F 18.0 °F 21.2 °F 74% 30.17 in 10.0 mi NW 12.7 mph - N/A   Clear
4:15 AM 26.6 °F 15.7 °F 21.2 °F 80% 30.17 in 10.0 mi NW 12.7 mph - N/A   Clear
4:35 AM 26.6 °F 14.7 °F 19.4 °F 74% 30.17 in 10.0 mi NW 15.0 mph 19.6 mph N/A   Clear
4:55 AM 26.6 °F 15.7 °F 19.4 °F 74% 30.17 in 10.0 mi NW 12.7 mph - N/A   Clear
5:15 AM 26.6 °F 14.7 °F 19.4 °F 74% 30.18 in 10.0 mi NW 15.0 mph - N/A   Clear
5:35 AM 26.6 °F 15.7 °F 19.4 °F 74% 30.18 in 10.0 mi NW 12.7 mph - N/A   Clear
5:55 AM 24.8 °F 13.4 °F 19.4 °F 80% 30.19 in 10.0 mi NW 12.7 mph - N/A   Clear
6:15 AM 24.8 °F 13.4 °F 19.4 °F 80% 30.19 in 10.0 mi NW 12.7 mph - N/A   Clear
6:35 AM 24.8 °F 12.9 °F 19.4 °F 80% 30.19 in 10.0 mi WNW 13.8 mph - N/A   Clear
6:55 AM 24.8 °F 11.5 °F 19.4 °F 80% 30.20 in 10.0 mi WNW 17.3 mph - N/A   Clear
7:15 AM 24.8 °F 12.4 °F 19.4 °F 80% 30.20 in 10.0 mi WNW 15.0 mph - N/A   Scattered Clouds
7:35 AM 26.6 °F 13.8 °F 19.4 °F 74% 30.20 in 10.0 mi NW 17.3 mph - N/A   Scattered Clouds
7:55 AM 26.6 °F 14.7 °F 19.4 °F 74% 30.22 in 10.0 mi WNW 15.0 mph - N/A   Clear
8:15 AM 26.6 °F 14.7 °F 19.4 °F 74% 30.23 in 10.0 mi WNW 15.0 mph - N/A   Scattered Clouds
8:35 AM 26.6 °F 14.7 °F 19.4 °F 74% 30.24 in 10.0 mi NW 15.0 mph - N/A   Scattered Clouds
8:55 AM 28.4 °F 17.5 °F 21.2 °F 74% 30.25 in 10.0 mi NW 13.8 mph 23.0 mph N/A   Mostly Cloudy
9:15 AM 28.4 °F 15.8 °F 21.2 °F 74% 30.25 in 10.0 mi NW 18.4 mph 24.2 mph N/A   Overcast
9:35 AM 28.4 °F 15.1 °F 21.2 °F 74% 30.25 in 10.0 mi NW 20.7 mph 26.5 mph N/A   Overcast
9:55 AM 30.2 °F 17.4 °F 23.0 °F 75% 30.26 in 10.0 mi NNW 20.7 mph 26.5 mph N/A   Overcast
10:15 AM 30.2 °F 18.5 °F 23.0 °F 75% 30.27 in 10.0 mi NW 17.3 mph 27.6 mph N/A   Overcast
10:35 AM 30.2 °F 18.1 °F 23.0 °F 75% 30.28 in 10.0 mi NW 18.4 mph 32.2 mph N/A   Mostly Cloudy
10:55 AM 32.0 °F 19.8 °F 23.0 °F 69% 30.28 in 10.0 mi NW 20.7 mph 27.6 mph N/A   Overcast
11:15 AM 32.0 °F 19.2 °F 23.0 °F 69% 30.29 in 10.0 mi NNW 23.0 mph 27.6 mph N/A   Overcast
11:35 AM 32.0 °F 20.1 °F 23.0 °F 69% 30.30 in 10.0 mi NNW 19.6 mph 24.2 mph N/A   Mostly Cloudy
11:55 AM 32.0 °F 21.2 °F 23.0 °F 69% 30.30 in 10.0 mi NNW 16.1 mph 26.5 mph N/A   Mostly Cloudy
12:15 PM 32.0 °F 21.2 °F 23.0 °F 69% 30.30 in 10.0 mi North 16.1 mph 23.0 mph N/A   Mostly Cloudy
12:35 PM 32.0 °F 21.6 °F 24.8 °F 75% 30.30 in 10.0 mi NNW 15.0 mph - N/A   Mostly Cloudy
12:55 PM 33.8 °F 23.5 °F 23.0 °F 65% 30.31 in 10.0 mi NW 16.1 mph 24.2 mph N/A   Scattered Clouds
1:15 PM 33.8 °F 22.8 °F 24.8 °F 70% 30.31 in 10.0 mi NW 18.4 mph 23.0 mph N/A   Mostly Cloudy
1:35 PM 33.8 °F 23.5 °F 23.0 °F 65% 30.31 in 10.0 mi NNW 16.1 mph 27.6 mph N/A   Mostly Cloudy
1:55 PM 33.8 °F 23.2 °F 24.8 °F 70% 30.30 in 10.0 mi NNW 17.3 mph 25.3 mph N/A   Scattered Clouds
2:15 PM 35.6 °F 25.9 °F 26.6 °F 70% 30.30 in 10.0 mi NW 16.1 mph 27.6 mph N/A   Scattered Clouds
2:35 PM 33.8 °F 21.6 °F 23.0 °F 65% 30.30 in 10.0 mi NW 23.0 mph 27.6 mph N/A   Mostly Cloudy
2:55 PM 35.6 °F 23.4 °F 24.8 °F 65% 30.30 in 10.0 mi WNW 25.3 mph 32.2 mph N/A   Mostly Cloudy
3:15 PM 33.8 °F 22.2 °F 23.0 °F 65% 30.30 in 10.0 mi NW 20.7 mph 26.5 mph N/A   Overcast
3:35 PM 33.8 °F 22.5 °F 23.0 °F 65% 30.30 in 10.0 mi NW 19.6 mph 26.5 mph N/A   Overcast
3:55 PM 33.8 °F 23.2 °F 23.0 °F 65% 30.30 in 10.0 mi NW 17.3 mph 25.3 mph N/A   Mostly Cloudy
4:15 PM 33.8 °F 22.5 °F 23.0 °F 65% 30.30 in 10.0 mi NW 19.6 mph 25.3 mph N/A   Mostly Cloudy
4:35 PM 33.8 °F 22.2 °F 23.0 °F 65% 30.30 in 10.0 mi NW 20.7 mph 27.6 mph N/A   Overcast
4:55 PM 33.8 °F 23.5 °F 23.0 °F 65% 30.30 in 10.0 mi NW 16.1 mph 24.2 mph N/A Snow Light Snow
5:15 PM 33.8 °F 23.2 °F 23.0 °F 65% 30.31 in 10.0 mi NW 17.3 mph - N/A   Overcast
5:35 PM 32.0 °F 22.1 °F 24.8 °F 75% 30.31 in 10.0 mi WNW 13.8 mph 21.9 mph N/A   Overcast
5:55 PM 33.8 °F 23.5 °F 23.0 °F 65% 30.31 in 10.0 mi WNW 16.1 mph 21.9 mph N/A   Overcast
6:15 PM 33.8 °F 23.2 °F 23.0 °F 65% 30.32 in 10.0 mi NW 17.3 mph 21.9 mph N/A   Overcast
6:35 PM 33.8 °F 25.3 °F 23.0 °F 65% 30.32 in 10.0 mi NW 11.5 mph - N/A   Overcast
6:55 PM 33.8 °F 23.9 °F 23.0 °F 65% 30.32 in 10.0 mi NW 15.0 mph - N/A   Overcast
7:15 PM 32.0 °F 22.1 °F 21.2 °F 64% 30.33 in 10.0 mi NW 13.8 mph 20.7 mph N/A   Overcast
7:35 PM 32.0 °F 24.2 °F 23.0 °F 69% 30.34 in 10.0 mi NW 9.2 mph - N/A   Overcast
7:55 PM 32.0 °F 22.5 °F 23.0 °F 69% 30.34 in 10.0 mi NW 12.7 mph - N/A   Overcast
8:15 PM 32.0 °F 24.2 °F 23.0 °F 69% 30.34 in 10.0 mi NW 9.2 mph - N/A   Overcast
8:35 PM 32.0 °F 24.2 °F 23.0 °F 69% 30.35 in 10.0 mi NW 9.2 mph - N/A   Scattered Clouds
8:55 PM 32.0 °F 24.8 °F 23.0 °F 69% 30.35 in 10.0 mi NW 8.1 mph - N/A   Clear
9:15 PM 30.2 °F 23.4 °F 23.0 °F 75% 30.36 in 10.0 mi WNW 6.9 mph - N/A   Scattered Clouds
9:35 PM 30.2 °F 25.4 °F 23.0 °F 75% 30.36 in 10.0 mi WNW 4.6 mph - N/A   Scattered Clouds
9:55 PM 30.2 °F 25.4 °F 23.0 °F 75% 30.37 in 10.0 mi West 4.6 mph - N/A   Clear
10:15 PM 30.2 °F 23.4 °F 23.0 °F 75% 30.37 in 10.0 mi WNW 6.9 mph - N/A   Clear
10:35 PM 30.2 °F 22.6 °F 23.0 °F 75% 30.37 in 10.0 mi NW 8.1 mph - N/A   Clear
10:55 PM 30.2 °F 23.4 °F 23.0 °F 75% 30.37 in 10.0 mi NW 6.9 mph - N/A   Mostly Cloudy
11:15 PM 30.2 °F 24.3 °F 23.0 °F 75% 30.38 in 10.0 mi NW 5.8 mph - N/A   Scattered Clouds
11:35 PM 28.4 °F 23.3 °F 23.0 °F 80% 30.38 in 10.0 mi WNW 4.6 mph - N/A   Clear
11:55 PM 28.4 °F 22.2 °F 23.0 °F 80% 30.38 in 10.0 mi WNW 5.8 mph - N/A   Clear